Springfield, OH

3:11 PM EDT on July 27, 2017 (GMT -0400)
Springfield-Beckley Municipal

Weather History for KSGH - March, 2014

Change the Weather History Date:

Wednesday, March 5, 2014

  Actual Average (KFFO) Record (KFFO)
Temperature  
Mean Temperature 23 °F -  
Max Temperature 32 °F 43 °F 75 °F (2004)
Min Temperature 14 °F 24 °F 9 °F (2015)
Degree Days  
Heating Degree Days 42    
Moisture  
Dew Point 14 °F    
Average Humidity 70    
Maximum Humidity 88    
Minimum Humidity 47    
Precipitation  
Precipitation 0.00 in - - ()
Sea Level Pressure  
Sea Level Pressure 30.34 in    
Wind  
Wind Speed 7 mph (NE)    
Max Wind Speed 16 mph    
Max Gust Speed -    
Visibility 7 miles    
Events      
Averages and records for this station are not official NWS values.
T = Trace of Precipitation, MM = Missing Value Source: NWS Daily Summary

Daily Weather History Graph

Daily Weather History Graph

Search for Another Location

Airport or City:

Trip Planner

Search our weather history database for the weather conditions in past years. The results will help you decide how hot, cold, wet, or windy it might be!

Date:

Astronomy

Mar. 05, 2014 Rise Set
Actual Time 7:02 AM EST 6:31 PM EST
Civil Twilight 6:35 AM EST 6:58 PM EST
Nautical Twilight 6:04 AM EST 7:30 PM EST
Astronomical Twilight 5:32 AM EST 8:01 PM EST
Moon 9:28 AM EST (3/5) 11:38 PM EST (3/5)
Length of Visible Light 12h 23m
Length of Day
11h 29m
Waxing Crescent, 23% of the Moon is Illuminated
Mar 5
Waxing Crescent
Mar 8
First Quarter
Mar 16
Full
Mar 23
Last Quarter
Mar 30
New

Hourly Weather History & Observations

Time (EST) Temp. Windchill Dew Point Humidity Pressure Visibility Wind Dir Wind Speed Gust Speed Precip Events Conditions
12:56 AM 18.1 °F - 13.1 °F 81% 30.25 in 8.0 mi Calm Calm - N/A   Clear
1:56 AM 15.1 °F 9.4 °F 12.0 °F 88% 30.25 in 7.0 mi NE 3.5 mph - N/A   Clear
2:56 AM 14.0 °F 6.5 °F 11.1 °F 88% 30.25 in 7.0 mi NE 4.6 mph - N/A   Clear
3:56 AM 15.1 °F 6.4 °F 11.1 °F 84% 30.25 in 8.0 mi NNE 5.8 mph - N/A   Clear
4:56 AM 15.1 °F 6.4 °F 11.1 °F 84% 30.26 in 7.0 mi NNE 5.8 mph - N/A   Clear
5:56 AM 15.1 °F 6.4 °F 10.0 °F 80% 30.28 in 7.0 mi NE 5.8 mph - N/A   Clear
6:56 AM 15.1 °F 7.7 °F 10.0 °F 80% 30.31 in 7.0 mi NNE 4.6 mph - N/A   Clear
7:56 AM 18.1 °F 7.1 °F 11.1 °F 74% 30.33 in 6.0 mi NNE 9.2 mph - N/A   Haze
8:56 AM 22.1 °F 11.3 °F 13.1 °F 68% 30.34 in 6.0 mi NE 10.4 mph - N/A   Haze
9:56 AM 25.2 °F 16.5 °F 12.0 °F 58% 30.35 in 7.0 mi NE 8.1 mph - N/A   Clear
10:56 AM 29.1 °F 23.0 °F 12.0 °F 49% 30.36 in 7.0 mi Variable 5.8 mph - N/A   Clear
11:56 AM 30.0 °F 23.2 °F 12.0 °F 47% 30.37 in 7.0 mi NNE 6.9 mph - N/A   Clear
12:56 PM 32.9 °F 24.7 °F 17.1 °F 52% 30.35 in 7.0 mi ENE 10.4 mph - N/A   Clear
1:56 PM 31.1 °F 22.4 °F 15.1 °F 52% 30.34 in 7.0 mi NE 10.4 mph - N/A   Scattered Clouds
2:56 PM 32.9 °F 25.3 °F 16.2 °F 50% 30.33 in 7.0 mi NNE 9.2 mph - N/A   Clear
3:56 PM 32.0 °F 22.1 °F 18.1 °F 57% 30.34 in 7.0 mi NNE 13.8 mph - N/A   Partly Cloudy
4:56 PM 29.1 °F 18.9 °F 20.1 °F 69% 30.36 in 7.0 mi NNE 12.7 mph - N/A   Scattered Clouds
5:56 PM 26.1 °F 14.0 °F 19.0 °F 75% 30.38 in 7.0 mi NE 15.0 mph - N/A   Partly Cloudy
6:56 PM 24.1 °F 11.5 °F 18.1 °F 78% 30.40 in 8.0 mi NNE 15.0 mph - N/A   Clear
7:56 PM 23.0 °F 9.6 °F 16.2 °F 75% 30.40 in 8.0 mi NE 16.1 mph - N/A   Mostly Cloudy
8:56 PM 21.0 °F 8.6 °F 14.0 °F 74% 30.40 in 9.0 mi NE 12.7 mph - N/A   Clear
9:56 PM 21.0 °F 8.6 °F 13.1 °F 71% 30.41 in 8.0 mi NE 12.7 mph - N/A   Mostly Cloudy
10:56 PM 20.1 °F 5.9 °F 13.1 °F 74% 30.40 in 9.0 mi NE 16.1 mph - N/A   Clear
11:56 PM 19.0 °F 6.8 °F 12.0 °F 74% 30.40 in 8.0 mi NE 11.5 mph - N/A   Clear